7 * 24
多渠道服务支持
STARLINK-36216是美国太空探索技术公司Starlink星链互联网卫星星座的一员,于2025年12月17日由美国发射升空。该卫星隶属于星链项目,旨在为全球提供高速低延迟互联网接入服务,尤其覆盖偏远地区及网络基础设施薄弱区域,进一步扩充了星链星座的组网规模与服务覆盖能力。
美国
(US)
| 数据来源 | 国际轨道数据 |
| 星历时间: | 2026-09-13T05:11:03+0800 9小时前 查看轨道信息 |
| 半长轴: | 6950.19km |
| 偏心率: | 0.0002629 |
| 轨道倾角: | 70.002° |
| 近地点辐角 | 266.420° |
| 升交点赤经 | 62.500° |
| 平近点角 | 93.666° |
| 近地点: | 570.225km |
| 远地点: | 573.881km |
| 周期: | 96.107分钟 |
| 每日圈数: | 14.983311 |